WZZ24M LROP-LATI

Flight info

Callsign WZZ24M
Flight time 1h 16m
Altitude 34000
Route POLUN DCT TIMUR DCT LUKOV N731 LETNI DCT MAVAR DCT ODRAS
Aircraft A21N/M-SDE3FGHIRWY/LB1

Departure

Time 2026-05-07 18:26
Airport Bucharest Henri Coandă International Airport (LROP)

Arrival

Time 2026-05-07 19:43
Airport Tirana International Airport Mother Teresa (LATI)
Time Latitude Longitude Altitude Speed Heading
2026-05-07 18:13 44.57016 26.08132 316 ft 0 kts 354°
2026-05-07 18:16 44.57015 26.08132 317 ft 0 kts 354°
2026-05-07 18:16 44.57016 26.08132 317 ft 0 kts 354°
2026-05-07 18:17 44.57007 26.08133 317 ft 2 kts 354°
2026-05-07 18:17 44.56993 26.08135 317 ft 2 kts 354°
2026-05-07 18:17 44.56978 26.08138 317 ft 2 kts 354°
2026-05-07 18:17 44.56963 26.08140 317 ft 2 kts 353°
2026-05-07 18:18 44.56948 26.08137 317 ft 2 kts 34°
2026-05-07 18:18 44.56937 26.08121 317 ft 2 kts 68°
2026-05-07 18:18 44.56935 26.08110 317 ft 0 kts 89°
2026-05-07 18:18 44.56935 26.08102 317 ft 0 kts 85°
2026-05-07 18:20 44.56935 26.08107 317 ft 1 kts 85°
2026-05-07 18:21 44.56937 26.08139 317 ft 4 kts 85°
2026-05-07 18:21 44.56942 26.08202 315 ft 8 kts 84°
2026-05-07 18:21 44.56949 26.08303 313 ft 11 kts 84°
2026-05-07 18:21 44.56955 26.08363 312 ft 2 kts 100°
2026-05-07 18:22 44.56930 26.08394 310 ft 6 kts 143°
2026-05-07 18:22 44.56918 26.08410 310 ft 7 kts 133°
2026-05-07 18:22 44.56937 26.08537 309 ft 9 kts 19°
2026-05-07 18:22 44.57005 26.08537 309 ft 9 kts 354°
2026-05-07 18:23 44.57070 26.08527 311 ft 8 kts 354°
2026-05-07 18:23 44.57129 26.08520 312 ft 7 kts 355°
2026-05-07 18:23 44.57181 26.08512 313 ft 7 kts 353°
2026-05-07 18:23 44.57234 26.08503 313 ft 7 kts 353°
2026-05-07 18:24 44.57291 26.08494 313 ft 8 kts 354°
2026-05-07 18:24 44.57352 26.08487 313 ft 9 kts 353°
2026-05-07 18:24 44.57420 26.08476 313 ft 10 kts 353°
2026-05-07 18:24 44.57492 26.08465 313 ft 10 kts 354°
2026-05-07 18:25 44.57568 26.08454 313 ft 11 kts 354°
2026-05-07 18:25 44.57645 26.08462 313 ft 11 kts 37°
2026-05-07 18:25 44.57676 26.08566 313 ft 12 kts 81°
2026-05-07 18:25 44.57708 26.08985 313 ft 76 kts 84°
2026-05-07 18:26 44.57785 26.09995 316 ft 132 kts 83°
2026-05-07 18:26 44.57909 26.11533 325 ft 177 kts 84°
2026-05-07 18:26 44.58045 26.13333 712 ft 187 kts 84°
2026-05-07 18:26 44.58227 26.15134 1373 ft 188 kts 83°
2026-05-07 18:27 44.58450 26.16903 2093 ft 185 kts 84°
2026-05-07 18:27 44.58670 26.18746 2327 ft 202 kts 83°
2026-05-07 18:27 44.58878 26.20771 2611 ft 215 kts 89°
2026-05-07 18:27 44.58938 26.22211 2744 ft 230 kts 90°
2026-05-07 18:28 44.59072 26.25337 3200 ft 250 kts 88°
2026-05-07 18:28 44.59224 26.27831 3557 ft 265 kts 87°
2026-05-07 18:28 44.59111 26.30400 4100 ft 266 kts 112°
2026-05-07 18:28 44.58097 26.32520 4769 ft 262 kts 140°
2026-05-07 18:29 44.56543 26.33732 5398 ft 262 kts 165°
2026-05-07 18:29 44.54734 26.34062 6035 ft 264 kts 175°
2026-05-07 18:29 44.52868 26.34284 6671 ft 268 kts 175°
2026-05-07 18:29 44.50989 26.34528 7340 ft 271 kts 174°
2026-05-07 18:30 44.49113 26.34784 7998 ft 274 kts 174°
2026-05-07 18:30 44.47181 26.35056 8639 ft 277 kts 174°
2026-05-07 18:30 44.45280 26.35328 9266 ft 280 kts 174°
2026-05-07 18:30 44.43306 26.35611 9872 ft 283 kts 174°
2026-05-07 18:31 44.41325 26.35896 10426 ft 288 kts 174°
2026-05-07 18:31 44.39272 26.35793 10703 ft 303 kts 194°
2026-05-07 18:31 44.37341 26.34530 11016 ft 318 kts 217°
2026-05-07 18:31 44.35894 26.32157 11328 ft 330 kts 242°
2026-05-07 18:32 44.35276 26.29029 11763 ft 334 kts 262°
2026-05-07 18:32 44.34975 26.25764 12387 ft 336 kts 262°
2026-05-07 18:32 44.34647 26.22540 12946 ft 338 kts 262°
2026-05-07 18:32 44.34304 26.19261 13520 ft 341 kts 262°
2026-05-07 18:33 44.33958 26.15966 14062 ft 343 kts 262°
2026-05-07 18:33 44.33615 26.12676 14598 ft 345 kts 262°
2026-05-07 18:33 44.33264 26.09333 15139 ft 347 kts 262°
2026-05-07 18:33 44.32911 26.05995 15691 ft 348 kts 262°
2026-05-07 18:34 44.32558 26.02662 16207 ft 350 kts 262°
2026-05-07 18:34 44.32200 25.99284 16676 ft 353 kts 262°
2026-05-07 18:34 44.31839 25.95900 17155 ft 355 kts 261°
2026-05-07 18:34 44.31473 25.92491 17685 ft 357 kts 261°
2026-05-07 18:35 44.31107 25.89065 18089 ft 359 kts 261°
2026-05-07 18:35 44.30740 25.85649 18623 ft 359 kts 261°
2026-05-07 18:35 44.30368 25.82199 19089 ft 361 kts 261°
2026-05-07 18:35 44.29988 25.78681 19510 ft 364 kts 261°
2026-05-07 18:36 44.29602 25.75121 19905 ft 367 kts 261°
2026-05-07 18:36 44.29223 25.71625 20299 ft 369 kts 261°
2026-05-07 18:36 44.28834 25.68072 20695 ft 371 kts 261°
2026-05-07 18:36 44.28444 25.64506 21103 ft 373 kts 261°
2026-05-07 18:37 44.28049 25.60905 21491 ft 375 kts 261°
2026-05-07 18:37 44.27652 25.57316 21816 ft 378 kts 261°
2026-05-07 18:37 44.27248 25.53653 22179 ft 381 kts 261°
2026-05-07 18:37 44.26847 25.50023 22571 ft 381 kts 261°
2026-05-07 18:38 44.26439 25.46346 22916 ft 384 kts 261°
2026-05-07 18:38 44.26028 25.42648 23250 ft 386 kts 261°
2026-05-07 18:38 44.25614 25.38948 23576 ft 388 kts 261°
2026-05-07 18:38 44.25198 25.35242 23888 ft 391 kts 261°
2026-05-07 18:39 44.24770 25.31449 24231 ft 393 kts 260°
2026-05-07 18:39 44.24346 25.27697 24565 ft 394 kts 259°
2026-05-07 18:39 44.23691 25.23981 24846 ft 396 kts 250°
2026-05-07 18:39 44.22537 25.20447 25176 ft 397 kts 240°
2026-05-07 18:40 44.20999 25.17278 25480 ft 399 kts 233°
2026-05-07 18:40 44.19294 25.14161 25772 ft 401 kts 232°
2026-05-07 18:40 44.17581 25.11080 26061 ft 403 kts 232°
2026-05-07 18:40 44.15862 25.07987 26349 ft 405 kts 233°
2026-05-07 18:41 44.14157 25.04912 26621 ft 407 kts 233°
2026-05-07 18:41 44.12425 25.01784 26857 ft 409 kts 233°
2026-05-07 18:41 44.10688 24.98644 27095 ft 412 kts 233°
2026-05-07 18:41 44.08924 24.95456 27326 ft 414 kts 233°
2026-05-07 18:42 44.07144 24.92242 27616 ft 415 kts 233°
2026-05-07 18:42 44.05391 24.89078 27887 ft 416 kts 233°
2026-05-07 18:42 44.03597 24.85844 28164 ft 417 kts 233°
2026-05-07 18:42 44.01834 24.82668 28415 ft 419 kts 233°
2026-05-07 18:43 44.00045 24.79449 28656 ft 420 kts 233°
2026-05-07 18:43 43.98257 24.76235 28902 ft 422 kts 233°
2026-05-07 18:43 43.96458 24.73006 29147 ft 423 kts 233°
2026-05-07 18:43 43.94642 24.69749 29398 ft 424 kts 233°
2026-05-07 18:44 43.92828 24.66499 29646 ft 426 kts 233°
2026-05-07 18:44 43.91013 24.63250 29887 ft 427 kts 233°
2026-05-07 18:44 43.89175 24.59964 30142 ft 428 kts 233°
2026-05-07 18:44 43.87351 24.56705 30365 ft 429 kts 233°
2026-05-07 18:45 43.85495 24.53394 30614 ft 430 kts 233°
2026-05-07 18:45 43.83643 24.50095 30851 ft 431 kts 233°
2026-05-07 18:45 43.81869 24.46937 31064 ft 432 kts 233°
2026-05-07 18:45 43.80014 24.43639 31331 ft 432 kts 233°
2026-05-07 18:46 43.78153 24.40333 31681 ft 430 kts 233°
2026-05-07 18:46 43.76317 24.37079 32055 ft 427 kts 233°
2026-05-07 18:46 43.74503 24.33865 32393 ft 425 kts 232°
2026-05-07 18:46 43.72673 24.30635 32643 ft 425 kts 231°
2026-05-07 18:47 43.70773 24.27523 32863 ft 426 kts 229°
2026-05-07 18:47 43.68704 24.24492 33117 ft 426 kts 225°
2026-05-07 18:47 43.66547 24.21662 33384 ft 425 kts 223°
2026-05-07 18:47 43.64300 24.19023 33591 ft 426 kts 219°
2026-05-07 18:48 43.61931 24.16462 33762 ft 427 kts 219°
2026-05-07 18:48 43.59603 24.13954 33975 ft 427 kts 219°
2026-05-07 18:48 43.57233 24.11400 34020 ft 429 kts 219°
2026-05-07 18:49 43.52535 24.06348 34033 ft 428 kts 219°
2026-05-07 18:49 43.47805 24.01272 34037 ft 428 kts 219°
2026-05-07 18:50 43.43115 23.96249 34034 ft 428 kts 219°
2026-05-07 18:50 43.38392 23.91202 34037 ft 428 kts 219°
2026-05-07 18:51 43.33680 23.86174 34036 ft 428 kts 219°
2026-05-07 18:51 43.28966 23.81159 34040 ft 429 kts 219°
2026-05-07 18:52 43.24209 23.76204 34043 ft 429 kts 218°
2026-05-07 18:52 43.19434 23.71289 34048 ft 428 kts 219°
2026-05-07 18:53 43.14681 23.66398 34057 ft 428 kts 219°
2026-05-07 18:53 43.09896 23.61480 34061 ft 429 kts 219°
2026-05-07 18:54 43.05151 23.56611 34072 ft 429 kts 219°
2026-05-07 18:54 43.00361 23.51705 34083 ft 430 kts 219°
2026-05-07 18:55 42.95561 23.46798 34092 ft 431 kts 219°
2026-05-07 18:55 42.90757 23.41892 34087 ft 431 kts 219°
2026-05-07 18:56 42.85941 23.36991 34087 ft 430 kts 220°
2026-05-07 18:56 42.81134 23.32106 34086 ft 430 kts 219°
2026-05-07 18:57 42.76339 23.27241 34077 ft 430 kts 219°
2026-05-07 18:57 42.71540 23.22383 34071 ft 430 kts 220°
2026-05-07 18:58 42.66701 23.17496 34079 ft 431 kts 220°
2026-05-07 18:58 42.61873 23.12627 34071 ft 432 kts 220°
2026-05-07 18:59 42.57048 23.07766 34088 ft 432 kts 220°
2026-05-07 18:59 42.52186 23.02882 34080 ft 431 kts 220°
2026-05-07 19:00 42.47333 22.98024 34086 ft 431 kts 221°
2026-05-07 19:00 42.42508 22.93193 34090 ft 432 kts 221°
2026-05-07 19:01 42.37654 22.88345 34063 ft 432 kts 221°
2026-05-07 19:01 42.32768 22.83475 34052 ft 433 kts 221°
2026-05-07 19:02 42.27901 22.78629 34067 ft 432 kts 221°
2026-05-07 19:02 42.23045 22.73813 34048 ft 431 kts 222°
2026-05-07 19:03 42.18238 22.69050 34072 ft 430 kts 223°
2026-05-07 19:03 42.13729 22.63718 34081 ft 423 kts 233°
2026-05-07 19:04 42.10242 22.57464 34087 ft 414 kts 244°
2026-05-07 19:04 42.07808 22.50494 34083 ft 409 kts 255°
2026-05-07 19:05 42.06247 22.43167 34103 ft 405 kts 259°
2026-05-07 19:05 42.04798 22.35828 34098 ft 403 kts 259°
2026-05-07 19:06 42.03352 22.28515 34093 ft 403 kts 259°
2026-05-07 19:06 42.01176 22.17569 34091 ft 400 kts 258°
2026-05-07 19:07 41.99735 22.10375 34090 ft 400 kts 259°
2026-05-07 19:07 41.98284 22.03139 34070 ft 400 kts 259°
2026-05-07 19:08 41.96831 21.95913 34079 ft 397 kts 258°
2026-05-07 19:08 41.95380 21.88725 34062 ft 395 kts 259°
2026-05-07 19:09 41.93936 21.81601 34074 ft 393 kts 259°
2026-05-07 19:09 41.92489 21.74495 34064 ft 393 kts 259°
2026-05-07 19:10 41.91036 21.67346 34072 ft 402 kts 259°
2026-05-07 19:10 41.89529 21.59991 34072 ft 407 kts 259°
2026-05-07 19:11 41.88773 21.56326 33933 ft 403 kts 259°
2026-05-07 19:11 41.88023 21.52675 33340 ft 403 kts 258°
2026-05-07 19:11 41.87266 21.49003 32338 ft 409 kts 259°
2026-05-07 19:11 41.86509 21.45301 31161 ft 419 kts 258°
2026-05-07 19:12 41.85722 21.41479 29879 ft 431 kts 258°
2026-05-07 19:12 41.84903 21.37531 28515 ft 443 kts 257°
2026-05-07 19:12 41.84072 21.33524 27267 ft 450 kts 256°
2026-05-07 19:12 41.83228 21.29472 26158 ft 454 kts 256°
2026-05-07 19:13 41.82381 21.25417 25071 ft 456 kts 255°
2026-05-07 19:13 41.81527 21.21339 24090 ft 456 kts 255°
2026-05-07 19:13 41.80672 21.17263 23695 ft 443 kts 255°
2026-05-07 19:13 41.79852 21.13376 23455 ft 428 kts 255°
2026-05-07 19:14 41.79058 21.09604 23229 ft 415 kts 255°
2026-05-07 19:14 41.78290 21.05965 23010 ft 402 kts 255°
2026-05-07 19:14 41.77537 21.02411 22798 ft 390 kts 255°
2026-05-07 19:14 41.76803 20.98941 22586 ft 378 kts 255°
2026-05-07 19:15 41.76102 20.95625 22347 ft 368 kts 255°
2026-05-07 19:15 41.75409 20.92345 21921 ft 364 kts 255°
2026-05-07 19:15 41.74724 20.89114 21457 ft 361 kts 255°
2026-05-07 19:15 41.74038 20.85883 20996 ft 358 kts 255°
2026-05-07 19:16 41.73361 20.82709 20535 ft 355 kts 255°
2026-05-07 19:16 41.72687 20.79547 20044 ft 353 kts 255°
2026-05-07 19:16 41.72012 20.76374 19575 ft 351 kts 255°
2026-05-07 19:16 41.71351 20.73275 19096 ft 349 kts 255°
2026-05-07 19:17 41.70685 20.70163 18597 ft 347 kts 255°
2026-05-07 19:17 41.70023 20.67070 18174 ft 344 kts 254°
2026-05-07 19:17 41.69369 20.64022 17719 ft 341 kts 254°
2026-05-07 19:17 41.68711 20.60966 17255 ft 339 kts 255°
2026-05-07 19:18 41.68069 20.57987 16793 ft 337 kts 254°
2026-05-07 19:18 41.67411 20.54965 16345 ft 335 kts 253°
2026-05-07 19:18 41.66661 20.52021 15867 ft 333 kts 250°
2026-05-07 19:18 41.65805 20.49164 15417 ft 331 kts 248°
2026-05-07 19:19 41.64928 20.46319 15146 ft 329 kts 248°
2026-05-07 19:19 41.64058 20.43501 15125 ft 330 kts 249°
2026-05-07 19:19 41.63186 20.40674 15118 ft 330 kts 248°
2026-05-07 19:19 41.62307 20.37826 15115 ft 330 kts 248°
2026-05-07 19:20 41.61430 20.34999 15114 ft 331 kts 248°
2026-05-07 19:20 41.60542 20.32137 15111 ft 331 kts 248°
2026-05-07 19:20 41.59658 20.29289 15108 ft 329 kts 248°
2026-05-07 19:20 41.58793 20.26507 14977 ft 325 kts 247°
2026-05-07 19:21 41.57930 20.23734 14508 ft 324 kts 247°
2026-05-07 19:21 41.57052 20.20912 14004 ft 324 kts 248°
2026-05-07 19:21 41.56319 20.18072 13515 ft 323 kts 254°
2026-05-07 19:21 41.55846 20.15176 13088 ft 322 kts 260°
2026-05-07 19:22 41.55587 20.12214 12651 ft 320 kts 263°
2026-05-07 19:22 41.55376 20.09283 12213 ft 318 kts 263°
2026-05-07 19:22 41.55167 20.06317 11739 ft 317 kts 263°
2026-05-07 19:22 41.54962 20.03421 11316 ft 315 kts 262°
2026-05-07 19:23 41.54755 20.00538 10921 ft 312 kts 262°
2026-05-07 19:23 41.54545 19.97670 10491 ft 309 kts 262°
2026-05-07 19:23 41.54337 19.94811 10015 ft 309 kts 262°
2026-05-07 19:23 41.54125 19.91949 9544 ft 308 kts 262°
2026-05-07 19:24 41.53920 19.89142 9343 ft 298 kts 262°
2026-05-07 19:24 41.53722 19.86450 9156 ft 288 kts 262°
2026-05-07 19:24 41.53527 19.83802 8973 ft 279 kts 261°
2026-05-07 19:24 41.53335 19.81272 8720 ft 273 kts 262°
2026-05-07 19:25 41.53144 19.78736 8328 ft 272 kts 262°
2026-05-07 19:25 41.52959 19.76248 8018 ft 270 kts 261°
2026-05-07 19:25 41.52767 19.73711 7980 ft 272 kts 262°
2026-05-07 19:25 41.52576 19.71199 7979 ft 274 kts 262°
2026-05-07 19:26 41.52383 19.68646 7990 ft 274 kts 261°
2026-05-07 19:26 41.52191 19.66114 7975 ft 273 kts 262°
2026-05-07 19:26 41.52002 19.63621 7733 ft 269 kts 261°
2026-05-07 19:26 41.51814 19.61119 7297 ft 271 kts 261°
2026-05-07 19:27 41.51747 19.58615 6850 ft 276 kts 276°
2026-05-07 19:27 41.52566 19.56271 6403 ft 285 kts 309°
2026-05-07 19:27 41.54187 19.54763 6006 ft 290 kts 340°
2026-05-07 19:27 41.56189 19.54327 5650 ft 288 kts 356°
2026-05-07 19:28 41.58165 19.54130 5307 ft 286 kts 355°
2026-05-07 19:28 41.60143 19.53915 4972 ft 284 kts 356°
2026-05-07 19:28 41.62101 19.54186 4560 ft 281 kts 25°
2026-05-07 19:28 41.63600 19.55755 4184 ft 273 kts 59°
2026-05-07 19:29 41.64224 19.58078 3989 ft 266 kts 87°
2026-05-07 19:29 41.64336 19.60548 3986 ft 269 kts 89°
2026-05-07 19:29 41.64458 19.63027 3978 ft 262 kts 88°
2026-05-07 19:29 41.64537 19.65393 3852 ft 249 kts 100°
2026-05-07 19:30 41.63920 19.67471 3594 ft 239 kts 131°
2026-05-07 19:30 41.62634 19.68818 3274 ft 234 kts 156°
2026-05-07 19:30 41.61075 19.69443 3005 ft 236 kts 171°
2026-05-07 19:30 41.59439 19.69720 2986 ft 242 kts 175°
2026-05-07 19:31 41.57754 19.69912 2986 ft 244 kts 174°
2026-05-07 19:31 41.56049 19.70111 2979 ft 242 kts 173°
2026-05-07 19:31 41.54360 19.70329 2963 ft 242 kts 172°
2026-05-07 19:31 41.52685 19.70556 2486 ft 244 kts 173°
2026-05-07 19:32 41.50979 19.70788 1938 ft 245 kts 174°
2026-05-07 19:32 41.49306 19.71013 1427 ft 242 kts 174°
2026-05-07 19:32 41.47652 19.71233 1107 ft 227 kts 174°
2026-05-07 19:32 41.46135 19.71435 860 ft 213 kts 174°
2026-05-07 19:33 41.44698 19.71627 543 ft 204 kts 174°
2026-05-07 19:33 41.43330 19.71815 340 ft 188 kts 174°
2026-05-07 19:33 41.42056 19.71991 127 ft 175 kts 175°
2026-05-07 19:33 41.40849 19.72137 390 ft 179 kts 175°
2026-05-07 19:34 41.39600 19.72294 1097 ft 178 kts 174°
2026-05-07 19:34 41.38381 19.72469 1659 ft 179 kts 173°
2026-05-07 19:34 41.37057 19.72686 1840 ft 205 kts 165°
2026-05-07 19:34 41.35776 19.73692 1701 ft 222 kts 130°
2026-05-07 19:35 41.35080 19.75518 1255 ft 225 kts 97°
2026-05-07 19:35 41.35283 19.77549 1004 ft 218 kts 61°
2026-05-07 19:35 41.36219 19.79116 1363 ft 220 kts 45°
2026-05-07 19:35 41.37443 19.80319 1846 ft 224 kts 20°
2026-05-07 19:36 41.39008 19.80601 2358 ft 234 kts 360°
2026-05-07 19:36 41.40665 19.80462 2812 ft 238 kts 356°
2026-05-07 19:36 41.42329 19.80237 2980 ft 239 kts 355°
2026-05-07 19:36 41.43989 19.79988 2983 ft 239 kts 355°
2026-05-07 19:37 41.45659 19.79735 2985 ft 239 kts 355°
2026-05-07 19:37 41.47336 19.79479 2986 ft 239 kts 355°
2026-05-07 19:37 41.48956 19.79225 2970 ft 226 kts 355°
2026-05-07 19:37 41.50464 19.78911 2959 ft 218 kts 342°
2026-05-07 19:38 41.51699 19.77800 2953 ft 205 kts 315°
2026-05-07 19:38 41.52618 19.76461 2954 ft 190 kts 314°
2026-05-07 19:38 41.53512 19.75169 2908 ft 183 kts 315°
2026-05-07 19:38 41.54399 19.73963 2627 ft 182 kts 316°
2026-05-07 19:39 41.55296 19.72800 2425 ft 180 kts 317°
2026-05-07 19:39 41.56228 19.71616 2387 ft 185 kts 318°
2026-05-07 19:39 41.56988 19.70213 2353 ft 191 kts 286°
2026-05-07 19:39 41.56990 19.69037 2347 ft 192 kts 251°
2026-05-07 19:40 41.55737 19.67556 2370 ft 188 kts 186°
2026-05-07 19:40 41.54471 19.67863 2378 ft 186 kts 158°
2026-05-07 19:40 41.53290 19.68546 2215 ft 181 kts 154°
2026-05-07 19:40 41.52178 19.69246 1965 ft 169 kts 152°
2026-05-07 19:41 41.51134 19.69913 1752 ft 169 kts 152°
2026-05-07 19:41 41.50050 19.70515 1554 ft 163 kts 160°
2026-05-07 19:41 41.49000 19.70889 1336 ft 153 kts 167°
2026-05-07 19:41 41.47954 19.71154 1153 ft 152 kts 169°
2026-05-07 19:42 41.46892 19.71347 958 ft 151 kts 173°
2026-05-07 19:42 41.45838 19.71480 759 ft 150 kts 174°
2026-05-07 19:42 41.44787 19.71613 555 ft 150 kts 174°
2026-05-07 19:42 41.43749 19.71750 353 ft 149 kts 173°
2026-05-07 19:43 41.42723 19.71897 171 ft 149 kts 173°
2026-05-07 19:43 41.41771 19.72025 121 ft 106 kts 180°
2026-05-07 19:43 41.41322 19.72050 126 ft 29 kts 184°
2026-05-07 19:43 41.41138 19.72098 127 ft 20 kts 173°
2026-05-07 19:44 41.41006 19.72119 128 ft 18 kts 173°
2026-05-07 19:44 41.40882 19.72136 129 ft 17 kts 174°
2026-05-07 19:44 41.40761 19.72153 129 ft 15 kts 174°
2026-05-07 19:44 41.40690 19.72123 129 ft 10 kts 240°
2026-05-07 19:45 41.40665 19.72017 129 ft 13 kts 253°
2026-05-07 19:45 41.40642 19.71902 127 ft 9 kts 257°
2026-05-07 19:45 41.40644 19.71802 126 ft 12 kts 315°
2026-05-07 19:45 41.40731 19.71758 126 ft 14 kts 353°
2026-05-07 19:46 41.40836 19.71743 126 ft 15 kts 350°
2026-05-07 19:46 41.40948 19.71717 126 ft 17 kts 351°
2026-05-07 19:46 41.41070 19.71699 126 ft 18 kts 353°
2026-05-07 19:46 41.41198 19.71675 125 ft 19 kts 354°
2026-05-07 19:47 41.41338 19.71661 122 ft 20 kts 355°
2026-05-07 19:47 41.41478 19.71645 122 ft 19 kts 355°
2026-05-07 19:47 41.41612 19.71626 120 ft 19 kts 354°
2026-05-07 19:47 41.41741 19.71610 119 ft 17 kts 355°
2026-05-07 19:48 41.41792 19.71587 119 ft 5 kts 294°
2026-05-07 19:48 41.41795 19.71545 119 ft 3 kts 270°
2026-05-07 19:48 41.41794 19.71520 119 ft 0 kts 265°
2026-05-07 19:48 41.41794 19.71516 119 ft 0 kts 265°
2026-05-07 19:49 41.41793 19.71514 119 ft 0 kts 265°